Weather History for Tampa Knight Airport, FL

Change the Weather History Date:

Friday, May 10, 2013

  Actual Average (KTPA) Record (KTPA)
Temperature  
Mean Temperature 78 °F 77 °F  
Max Temperature 87 °F 86 °F 94 °F (2009)
Min Temperature 68 °F 68 °F 55 °F (1923)
Degree Days  
Heating Degree Days 0 0  
Month to date heating degree days 0  
Since 1 July heating degree days 538  
Cooling Degree Days 12 12  
Month to date cooling degree days 113  
Year to date cooling degree days 573  
Growing Degree Days 28 (Base 50)    
Moisture  
Dew Point 64 °F    
Average Humidity 66    
Maximum Humidity 94    
Minimum Humidity 40    
Precipitation  
Precipitation 0.00 in 0.05 in 1.84 in (1957)
Month to date precipitation 0.53  
Year to date precipitation 10.63  
Sea Level Pressure  
Sea Level Pressure 30.07 in    
Wind  
Wind Speed 6 mph (SSE)    
Max Wind Speed 12 mph    
Max Gust Speed -    
Visibility 10 miles    
Events      
T = Trace of Precipitation, MM = Missing Value Source: NWS Daily Summary

Daily Weather History Graph

Daily Weather History Graph

Search for Another Location

Airport:

Trip Planner

Search our weather history database for the weather conditions in past years. The results will help you decide how hot, cold, wet, or windy it might be!

Date:

Astronomy

May. 10, 2013 Rise Set
Actual Time 6:43 AM EDT 8:09 PM EDT
Civil Twilight 6:17 AM EDT 8:34 PM EDT
Nautical Twilight 5:47 AM EDT 9:05 PM EDT
Astronomical Twilight 5:16 AM EDT 9:36 PM EDT
Moon 7:07 AM EDT (5/10) 8:55 PM EDT (5/10)
Length of Visible Light 14h 16m
Length of Day
13h 26m
New Moon, 0% of the Moon is Illuminated
May 10
New Moon
May 18
First Quarter
May 25
Full
May 31
Last Quarter
Jun 8
New

Hourly Weather History & Observations

Time (EDT) Temp. Heat Index Dew Point Humidity Pressure Visibility Wind Dir Wind Speed Gust Speed Precip Events Conditions
12:35 AM 69.8 °F - 60.8 °F 73% 30.16 in 10.0 mi NE 9.2 mph - N/A   Clear
1:15 AM 68.0 °F - 60.8 °F 78% 30.15 in 10.0 mi NE 4.6 mph - N/A   Clear
1:55 AM 68.0 °F - 60.8 °F 78% 30.12 in 10.0 mi NE 8.1 mph - N/A   Clear
2:15 AM 68.0 °F - 60.8 °F 78% 30.12 in 10.0 mi NE 4.6 mph - N/A   Clear
2:35 AM 68.0 °F - 60.8 °F 78% 30.11 in 10.0 mi NE 5.8 mph - N/A   Clear
2:55 AM 68.0 °F - 60.8 °F 78% 30.11 in 10.0 mi NE 6.9 mph - N/A   Clear
3:15 AM 68.0 °F - 60.8 °F 78% 30.11 in 10.0 mi NE 5.8 mph - N/A   Clear
3:35 AM 68.0 °F - 60.8 °F 78% 30.11 in 10.0 mi NE 4.6 mph - N/A   Clear
3:55 AM 68.0 °F - 60.8 °F 78% 30.10 in 10.0 mi NE 4.6 mph - N/A   Mostly Cloudy
4:15 AM 68.0 °F - 60.8 °F 78% 30.09 in 10.0 mi Calm Calm - N/A   Overcast
4:35 AM 69.8 °F - 60.8 °F 73% 30.08 in 10.0 mi East 4.6 mph - N/A   Overcast
4:55 AM 68.0 °F - 60.8 °F 78% 30.08 in 10.0 mi ENE 4.6 mph - N/A   Overcast
5:15 AM 68.0 °F - 62.6 °F 83% 30.07 in 10.0 mi NE 4.6 mph - N/A   Overcast
5:35 AM 69.8 °F - 62.6 °F 78% 30.08 in 10.0 mi ENE 5.8 mph - N/A   Overcast
5:55 AM 69.8 °F - 62.6 °F 78% 30.07 in 10.0 mi East 6.9 mph - N/A   Overcast
6:15 AM 68.0 °F - 62.6 °F 83% 30.07 in 10.0 mi East 4.6 mph - N/A   Overcast
6:35 AM 68.0 °F - 64.4 °F 88% 30.07 in 7.0 mi East 3.5 mph - N/A   Overcast
6:55 AM 69.8 °F - 66.2 °F 88% 30.08 in 5.0 mi East 5.8 mph - N/A   Overcast
7:15 AM 69.8 °F - 66.2 °F 88% 30.08 in 2.5 mi East 3.5 mph - N/A   Overcast
7:35 AM 69.8 °F - 68.0 °F 94% 30.09 in 4.0 mi ESE 3.5 mph - N/A   Overcast
8:15 AM 71.6 °F - 68.0 °F 88% 30.08 in 7.0 mi ESE 8.1 mph - N/A   Scattered Clouds
8:35 AM 71.6 °F - 68.0 °F 88% 30.09 in 10.0 mi SE 9.2 mph - N/A   Clear
9:15 AM 73.4 °F - 68.0 °F 83% 30.10 in 10.0 mi SSE 4.6 mph - N/A   Clear
9:35 AM 77.0 °F - 69.8 °F 78% 30.10 in 10.0 mi SE 8.1 mph - N/A   Clear
9:55 AM 78.8 °F - 69.8 °F 74% 30.09 in 10.0 mi SE 8.1 mph - N/A   Clear
10:15 AM 80.6 °F 83.9 °F 69.8 °F 70% 30.09 in 10.0 mi SE 9.2 mph - N/A   Clear
10:35 AM 80.6 °F 83.2 °F 68.0 °F 65% 30.09 in 10.0 mi SE 8.1 mph - N/A   Clear
11:15 AM 82.4 °F 85.4 °F 68.0 °F 62% 30.09 in 10.0 mi SSE 11.5 mph - N/A   Clear
11:35 AM 82.4 °F 85.4 °F 68.0 °F 62% 30.09 in 10.0 mi SSE 9.2 mph - N/A   Clear
11:55 AM 82.4 °F 84.6 °F 66.2 °F 58% 30.11 in 10.0 mi South 9.2 mph - N/A   Clear
12:15 PM 82.4 °F 84.6 °F 66.2 °F 58% 30.11 in 10.0 mi South 6.9 mph - N/A   Clear
12:35 PM 84.2 °F 86.6 °F 66.2 °F 55% 30.10 in 10.0 mi SSW 9.2 mph - N/A   Clear
1:15 PM 84.2 °F 85.0 °F 62.6 °F 48% 30.10 in 10.0 mi South 5.8 mph - N/A   Clear
1:35 PM 86.0 °F 86.6 °F 62.6 °F 45% 30.11 in 10.0 mi SSW 4.6 mph - N/A   Clear
1:55 PM 86.0 °F 86.1 °F 60.8 °F 43% 30.10 in 10.0 mi SW 6.9 mph - N/A   Clear
2:15 PM 86.0 °F 86.6 °F 62.6 °F 45% 30.09 in 10.0 mi West 3.5 mph - N/A   Clear
2:35 PM 86.0 °F 86.1 °F 60.8 °F 43% 30.09 in 10.0 mi WSW 4.6 mph - N/A   Clear
2:55 PM 87.8 °F 87.6 °F 60.8 °F 40% 30.08 in 10.0 mi SW 4.6 mph - N/A   Clear
3:15 PM 86.0 °F 86.1 °F 60.8 °F 43% 30.07 in 10.0 mi SSE 4.6 mph - N/A   Clear
3:35 PM 87.8 °F 88.5 °F 62.6 °F 43% 30.06 in 10.0 mi SSW 5.8 mph - N/A   Clear
3:55 PM 87.8 °F 87.6 °F 60.8 °F 40% 30.06 in 10.0 mi WSW 6.9 mph - N/A   Clear
4:15 PM 87.8 °F 88.5 °F 62.6 °F 43% 30.05 in 10.0 mi SW 9.2 mph - N/A   Clear
4:35 PM 87.8 °F 88.5 °F 62.6 °F 43% 30.05 in 10.0 mi WSW 9.2 mph - N/A   Clear
4:55 PM 86.0 °F 86.6 °F 62.6 °F 45% 30.04 in 10.0 mi WSW 9.2 mph - N/A   Clear
5:15 PM 86.0 °F 86.6 °F 62.6 °F 45% 30.04 in 10.0 mi West 5.8 mph - N/A   Clear
5:35 PM 86.0 °F 86.6 °F 62.6 °F 45% 30.04 in 10.0 mi WSW 4.6 mph - N/A   Clear
6:15 PM 84.2 °F 85.0 °F 62.6 °F 48% 30.02 in 10.0 mi WNW 6.9 mph - N/A   Clear
6:35 PM 82.4 °F 83.4 °F 62.6 °F 51% 30.01 in 10.0 mi West 4.6 mph - N/A   Clear
6:55 PM 82.4 °F 83.4 °F 62.6 °F 51% 30.01 in 10.0 mi West 4.6 mph - N/A   Clear
7:15 PM 80.6 °F 82.3 °F 64.4 °F 58% 30.01 in 10.0 mi West 4.6 mph - N/A   Clear
7:35 PM 80.6 °F 82.3 °F 64.4 °F 58% 30.01 in 10.0 mi West 3.5 mph - N/A   Clear
7:55 PM 78.8 °F - 64.4 °F 61% 30.02 in 10.0 mi WNW 3.5 mph - N/A   Clear
8:15 PM 78.8 °F - 64.4 °F 61% 30.02 in 10.0 mi Calm Calm - N/A   Clear
8:35 PM 78.8 °F - 64.4 °F 61% 30.03 in 10.0 mi West 3.5 mph - N/A   Clear
8:55 PM 78.8 °F - 64.4 °F 61% 30.04 in 10.0 mi Calm Calm - N/A   Clear
9:15 PM 77.0 °F - 64.4 °F 65% 30.04 in 10.0 mi Calm Calm - N/A   Clear
9:35 PM 77.0 °F - 64.4 °F 65% 30.04 in 10.0 mi Calm Calm - N/A   Clear
9:55 PM 77.0 °F - 68.0 °F 74% 30.04 in 10.0 mi SW 3.5 mph - N/A   Clear
10:15 PM 77.0 °F - 68.0 °F 74% 30.05 in 10.0 mi Calm Calm - N/A   Clear
10:35 PM 77.0 °F - 68.0 °F 74% 30.06 in 10.0 mi West 3.5 mph - N/A   Clear
10:55 PM 75.2 °F - 68.0 °F 78% 30.06 in 10.0 mi Calm Calm - N/A   Clear
11:15 PM 75.2 °F - 68.0 °F 78% 30.06 in 10.0 mi Calm Calm - N/A   Clear
11:35 PM 75.2 °F - 68.0 °F 78% 30.07 in 10.0 mi Calm Calm - N/A   Clear
11:55 PM 75.2 °F - 68.0 °F 78% 30.08 in 10.0 mi Calm Calm - N/A   Clear